Weather History for KLCH - March, 2014

Change the Weather History Date:

Saturday, March 8, 2014

  Actual Average Record
Temperature  
Mean Temperature 58 °F 60 °F  
Max Temperature 67 °F 70 °F 90 °F (1911)
Min Temperature 49 °F 50 °F 29 °F (1989)
Degree Days  
Heating Degree Days 7 7  
Month to date heating degree days 122 58  
Since 1 July heating degree days 1773 1340  
Cooling Degree Days 0 1  
Month to date cooling degree days 3 8  
Year to date cooling degree days 18 31  
Growing Degree Days 8 (Base 50)    
Moisture  
Dew Point 52 °F    
Average Humidity 82    
Maximum Humidity 100    
Minimum Humidity 63    
Precipitation  
Precipitation T in 0.12 in 2.54 in (1988)
Month to date precipitation 0.68 0.98  
Year to date precipitation 7.47 9.67  
Snow  
Snow 0.00 in 0.00 in 0.00 in ()
Month to date snowfall 0.0 0.0  
Since 1 July snowfall 0.1 0.1  
Snow Depth 0.00 in    
Sea Level Pressure  
Sea Level Pressure 30.11 in    
Wind  
Wind Speed 6 mph (East)    
Max Wind Speed 12 mph    
Max Gust Speed 14 mph    
Visibility 9 miles    
Events      
T = Trace of Precipitation, MM = Missing Value Source: NWS Daily Summary

Daily Weather History Graph

Daily Weather History Graph

Search for Another Location

Airport or City:

Trip Planner

Search our weather history database for the weather conditions in past years. The results will help you decide how hot, cold, wet, or windy it might be!

Date:

Astronomy

Mar. 08, 2014 Rise Set
Actual Time 6:30 AM CST 6:16 PM CST
Civil Twilight 6:07 AM CST 6:40 PM CST
Nautical Twilight 5:39 AM CST 7:08 PM CST
Astronomical Twilight 5:11 AM CST 7:36 PM CST
Moon 11:39 AM CST (3/8) 12:49 AM CST (3/8)
Length of Visible Light 12h 33m
Length of Day
11h 45m
First Quarter, 52% of the Moon is Illuminated
Mar 8
First Quarter
Mar 16
Full
Mar 23
Last Quarter
Mar 30
New
Apr 7
First Quarter

Hourly Weather History & Observations

Time (CST) Temp. Dew Point Humidity Pressure Visibility Wind Dir Wind Speed Gust Speed Precip Events Conditions
12:49 AM 50.0 °F 48.2 °F 94% 30.05 in 7.0 mi Calm Calm - N/A   Mostly Cloudy
12:53 AM 48.9 °F 48.0 °F 97% 30.07 in 7.0 mi Calm Calm - N/A   Mostly Cloudy
1:23 AM 50.0 °F 48.0 °F 93% 30.06 in 6.0 mi North 3.5 mph - N/A   Mostly Cloudy
1:53 AM 50.0 °F 48.9 °F 96% 30.07 in 7.0 mi NE 4.6 mph - N/A   Overcast
2:53 AM 50.0 °F 48.9 °F 96% 30.06 in 7.0 mi East 4.6 mph - N/A   Overcast
3:12 AM 50.0 °F 48.9 °F 96% 30.03 in 9.0 mi East 5.8 mph - N/A   Scattered Clouds
3:53 AM 51.1 °F 48.9 °F 92% 30.05 in 9.0 mi East 6.9 mph - N/A   Scattered Clouds
4:53 AM 52.0 °F 50.0 °F 93% 30.06 in 10.0 mi ESE 6.9 mph - N/A   Overcast
5:53 AM 52.0 °F 50.0 °F 93% 30.07 in 10.0 mi East 5.8 mph - N/A   Mostly Cloudy
6:53 AM 52.0 °F 50.0 °F 93% 30.09 in 9.0 mi ESE 8.1 mph - N/A   Partly Cloudy
7:53 AM 54.0 °F 51.1 °F 90% 30.12 in 10.0 mi SE 10.4 mph - N/A   Mostly Cloudy
8:53 AM 55.9 °F 52.0 °F 87% 30.14 in 10.0 mi ESE 8.1 mph - N/A   Overcast
9:53 AM 60.1 °F 53.1 °F 78% 30.16 in 10.0 mi East 10.4 mph - N/A   Mostly Cloudy
10:53 AM 63.0 °F 53.1 °F 70% 30.16 in 10.0 mi ESE 10.4 mph - N/A   Overcast
11:53 AM 63.0 °F 54.0 °F 72% 30.15 in 10.0 mi ESE 8.1 mph - N/A   Overcast
12:53 PM 64.0 °F 54.0 °F 70% 30.13 in 10.0 mi East 8.1 mph - N/A   Overcast
1:53 PM 64.9 °F 54.0 °F 68% 30.10 in 10.0 mi ESE 9.2 mph - N/A   Overcast
2:53 PM 66.0 °F 54.0 °F 65% 30.09 in 10.0 mi SE 6.9 mph - N/A   Clear
3:53 PM 66.0 °F 54.0 °F 65% 30.09 in 10.0 mi SE 8.1 mph - N/A   Mostly Cloudy
4:53 PM 64.9 °F 54.0 °F 68% 30.09 in 10.0 mi ESE 6.9 mph - N/A   Partly Cloudy
5:53 PM 63.0 °F 55.0 °F 75% 30.12 in 10.0 mi ESE 3.5 mph - N/A   Mostly Cloudy
6:53 PM 62.1 °F 55.0 °F 78% 30.13 in 10.0 mi SE 5.8 mph - N/A   Overcast
7:53 PM 59.0 °F 55.0 °F 87% 30.14 in 10.0 mi SE 4.6 mph - N/A   Mostly Cloudy
8:53 PM 57.9 °F 55.0 °F 90% 30.17 in 10.0 mi Calm Calm - N/A   Clear
9:53 PM 57.0 °F 55.0 °F 93% 30.19 in 10.0 mi Calm Calm - 0.00 in   Partly Cloudy
10:53 PM 57.0 °F 55.0 °F 93% 30.18 in 10.0 mi NE 3.5 mph - N/A   Mostly Cloudy
11:53 PM 55.9 °F 55.0 °F 97% 30.19 in 10.0 mi NNW 3.5 mph - 0.00 in   Scattered Clouds